When you browse on this site, cookies collect data to enhance your experience and personalize the content and advertising you see.
Visit our Privacy Policy to learn more. By continuing to use the site, you agree to this use of cookies and data.
  • In Sweden
  • List of Countries
  • For 7 days
  • Water Temperature
  • Weather Map
  • Weather Widgets
  • user-avatar
    Login

    Hourly Weather Soczewka

    Today, 22 October, Tuesday

    Time Temperature Precipitation Wind Pressure Humidity
    00:00 +15°C° 0 mm 2 mps 759 mmHg 82%
    01:00 +15°C° 0 mm 1 mps 760 mmHg 82%
    02:00 +15°C° 0 mm 1 mps 760 mmHg 84%
    03:00 +15°C° 0 mm 1 mps 760 mmHg 86%
    04:00 +14°C° 0 mm 1 mps 760 mmHg 88%
    05:00 +14°C° 0 mm 1 mps 760 mmHg 89%
    06:00 +14°C° 0 mm 1 mps 760 mmHg 89%
    07:00 +14°C° 0 mm 1 mps 761 mmHg 87%
    08:00 +15°C° 0 mm 1 mps 761 mmHg 81%
    09:00 +18°C° 0 mm 1 mps 761 mmHg 75%
    10:00 +19°C° 0 mm 1 mps 761 mmHg 69%
    11:00 +20°C° 0 mm 1 mps 761 mmHg 65%
    12:00 +21°C° 0 mm 1 mps 761 mmHg 62%
    13:00 +22°C° 0 mm 1 mps 761 mmHg 57%
    14:00 +21°C° 0 mm 1 mps 761 mmHg 60%
    15:00 +21°C° 0 mm 1 mps 761 mmHg 63%
    16:00 +20°C° 0 mm 1 mps 760 mmHg 66%
    17:00 +19°C° 0 mm 1 mps 760 mmHg 69%
    18:00 +18°C° 0 mm 1 mps 761 mmHg 72%
    19:00 +16°C° 0 mm 1 mps 761 mmHg 75%
    20:00 +16°C° 0 mm 1 mps 761 mmHg 77%
    21:00 +16°C° 0 mm 1 mps 761 mmHg 78%
    22:00 +15°C° 0 mm 2 mps 761 mmHg 80%
    23:00 +15°C° 0 mm 2 mps 761 mmHg 83%

    Tomorrow, 23 October, Wednesday

    Time Temperature Precipitation Wind Pressure Humidity
    00:00 +14°C° 0 mm 2 mps 761 mmHg 86%
    01:00 +14°C° 0 mm 2 mps 761 mmHg 89%
    02:00 +14°C° 0 mm 1 mps 761 mmHg 90%
    03:00 +13°C° 0 mm 1 mps 761 mmHg 91%
    04:00 +13°C° 0 mm 1 mps 761 mmHg 92%
    05:00 +13°C° 0 mm 1 mps 761 mmHg 92%
    06:00 +13°C° 0 mm 1 mps 761 mmHg 92%
    07:00 +12°C° 0 mm 1 mps 761 mmHg 92%
    08:00 +14°C° 0 mm 1 mps 761 mmHg 84%
    09:00 +15°C° 0 mm 1 mps 760 mmHg 77%
    10:00 +18°C° 0 mm 1 mps 760 mmHg 69%
    11:00 +17°C° 0 mm 0 mps 760 mmHg 66%
    12:00 +17°C° 0 mm 0 mps 760 mmHg 63%
    13:00 +18°C° 0 mm 0 mps 760 mmHg 59%
    14:00 +20°C° 0 mm 1 mps 759 mmHg 62%
    15:00 +19°C° 0 mm 1 mps 759 mmHg 65%
    16:00 +17°C° 0 mm 2 mps 759 mmHg 68%
    17:00 +17°C° 0 mm 2 mps 759 mmHg 72%
    18:00 +16°C° 0 mm 2 mps 759 mmHg 76%
    19:00 +15°C° 0 mm 2 mps 758 mmHg 80%
    20:00 +15°C° 0 mm 2 mps 758 mmHg 82%
    21:00 +13°C° 0 mm 3 mps 758 mmHg 84%
    22:00 +13°C° 0 mm 3 mps 758 mmHg 87%
    23:00 +13°C° 0 mm 3 mps 757 mmHg 88%

    Day after tomorrow, 24 October, Thursday

    Time Temperature Precipitation Wind Pressure Humidity
    00:00 +13°C° 0 mm 3 mps 757 mmHg 90%
    01:00 +12°C° 0 mm 3 mps 757 mmHg 92%
    02:00 +12°C° 0 mm 3 mps 757 mmHg 92%
    03:00 +12°C° 0 mm 3 mps 756 mmHg 93%
    04:00 +12°C° 0 mm 3 mps 756 mmHg 93%
    05:00 +12°C° 0 mm 3 mps 756 mmHg 93%
    06:00 +12°C° 0 mm 4 mps 755 mmHg 94%
    07:00 +12°C° 0 mm 4 mps 755 mmHg 94%
    08:00 +13°C° 0 mm 4 mps 755 mmHg 87%
    09:00 +15°C° 0 mm 4 mps 755 mmHg 80%
    10:00 +17°C° 0 mm 5 mps 754 mmHg 73%
    11:00 +19°C° 0 mm 5 mps 754 mmHg 69%
    12:00 +20°C° 0 mm 5 mps 754 mmHg 65%
    13:00 +21°C° 0 mm 5 mps 753 mmHg 61%
    14:00 +20°C° 0 mm 5 mps 753 mmHg 63%
    15:00 +19°C° 0 mm 4 mps 753 mmHg 66%
    16:00 +18°C° 0 mm 4 mps 752 mmHg 69%
    17:00 +18°C° 0 mm 4 mps 752 mmHg 72%
    18:00 +17°C° 0 mm 3 mps 752 mmHg 75%
    19:00 +16°C° 0 mm 3 mps 752 mmHg 78%
    20:00 +16°C° 0 mm 3 mps 752 mmHg 77%
    21:00 +14°C° 0 mm 3 mps 752 mmHg 76%
    22:00 +14°C° 0 mm 3 mps 753 mmHg 74%
    23:00 +14°C° 0 mm 3 mps 753 mmHg 72%

    25 October, Friday

    Time Temperature Precipitation Wind Pressure Humidity
    00:00 +14°C° 0 mm 3 mps 753 mmHg 69%
    01:00 +14°C° 0 mm 3 mps 753 mmHg 67%
    02:00 +13°C° 0 mm 3 mps 753 mmHg 70%
    03:00 +13°C° 0 mm 3 mps 753 mmHg 74%
    04:00 +12°C° 0 mm 3 mps 753 mmHg 77%
    05:00 +12°C° 0 mm 3 mps 754 mmHg 82%
    06:00 +12°C° 0 mm 4 mps 754 mmHg 88%
    07:00 +11°C° 0 mm 4 mps 755 mmHg 94%
    08:00 +13°C° 0 mm 4 mps 755 mmHg 88%
    09:00 +14°C° 0 mm 4 mps 756 mmHg 83%
    10:00 +17°C° 0 mm 4 mps 756 mmHg 77%
    11:00 +16°C° 0 mm 5 mps 757 mmHg 72%
    12:00 +17°C° 0 mm 5 mps 757 mmHg 67%
    13:00 +19°C° 0 mm 5 mps 758 mmHg 63%
    14:00 +18°C° 0 mm 4 mps 758 mmHg 65%
    15:00 +18°C° 0 mm 4 mps 758 mmHg 67%
    16:00 +17°C° 0 mm 3 mps 758 mmHg 69%
    17:00 +16°C° 0 mm 2 mps 758 mmHg 73%
    18:00 +15°C° 0 mm 2 mps 759 mmHg 76%
    19:00 +14°C° 0 mm 1 mps 759 mmHg 80%
    20:00 +13°C° 0 mm 1 mps 759 mmHg 81%
    21:00 +13°C° 0 mm 1 mps 759 mmHg 83%
    22:00 +13°C° 0 mm 1 mps 759 mmHg 84%
    23:00 +12°C° 0 mm 1 mps 759 mmHg 85%

    26 October, Saturday

    Time Temperature Precipitation Wind Pressure Humidity
    00:00 +12°C° 0 mm 2 mps 758 mmHg 86%
    01:00 +12°C° 0 mm 2 mps 758 mmHg 87%
    02:00 +11°C° 0 mm 3 mps 758 mmHg 88%
    03:00 +11°C° 0 mm 3 mps 757 mmHg 89%
    04:00 +11°C° 0 mm 3 mps 757 mmHg 90%
    05:00 +11°C° 0 mm 4 mps 756 mmHg 89%
    06:00 +11°C° 0 mm 4 mps 756 mmHg 88%
    07:00 +11°C° 0 mm 4 mps 755 mmHg 88%
    08:00 +13°C° 0 mm 5 mps 755 mmHg 81%
    09:00 +15°C° 0 mm 5 mps 755 mmHg 73%
    10:00 +16°C° 0 mm 6 mps 755 mmHg 66%
    11:00 +17°C° 0 mm 6 mps 754 mmHg 62%
    12:00 +19°C° 0 mm 6 mps 754 mmHg 59%
    13:00 +19°C° 0 mm 6 mps 754 mmHg 55%
    14:00 +17°C° 0 mm 5 mps 754 mmHg 59%
    15:00 +17°C° 0 mm 4 mps 754 mmHg 62%
    16:00 +17°C° 0 mm 4 mps 753 mmHg 66%
    17:00 +16°C° 0 mm 3 mps 754 mmHg 68%
    18:00 +14°C° 0 mm 3 mps 754 mmHg 71%
    19:00 +14°C° 0 mm 3 mps 754 mmHg 73%
    20:00 +14°C° 0.1 mm 3 mps 754 mmHg 76%
    21:00 +13°C° 0.1 mm 3 mps 754 mmHg 79%
    22:00 +13°C° 0.1 mm 3 mps 754 mmHg 82%
    23:00 +13°C° 0.4 mm 3 mps 753 mmHg 84%

    27 October, Sunday

    Time Temperature Precipitation Wind Pressure Humidity
    00:00 +12°C° 0.4 mm 3 mps 753 mmHg 85%
    01:00 +11°C° 0.4 mm 3 mps 753 mmHg 87%
    02:00 +11°C° 0.5 mm 3 mps 753 mmHg 86%
    03:00 +11°C° 0.5 mm 4 mps 753 mmHg 85%
    04:00 +10°C° 0.5 mm 4 mps 753 mmHg 85%
    05:00 +9°C° 0.7 mm 5 mps 753 mmHg 84%
    06:00 +8°C° 0.7 mm 6 mps 753 mmHg 83%
    07:00 +8°C° 0.7 mm 6 mps 754 mmHg 82%
    08:00 +7°C° 0.2 mm 6 mps 754 mmHg 77%
    09:00 +6°C° 0.2 mm 7 mps 755 mmHg 72%
    10:00 +6°C° 0.2 mm 7 mps 755 mmHg 67%
    11:00 +8°C° 0 mm 7 mps 755 mmHg 64%
    12:00 +9°C° 0 mm 8 mps 756 mmHg 61%
    13:00 +9°C° 0 mm 8 mps 756 mmHg 58%
    14:00 +9°C° 0 mm 7 mps 756 mmHg 59%
    15:00 +9°C° 0 mm 7 mps 756 mmHg 61%
    16:00 +8°C° 0 mm 6 mps 756 mmHg 63%
    17:00 +8°C° 0 mm 6 mps 756 mmHg 63%
    18:00 +8°C° 0 mm 7 mps 756 mmHg 64%
    19:00 +8°C° 0 mm 7 mps 756 mmHg 64%
    20:00 +8°C° 0 mm 7 mps 756 mmHg 66%
    21:00 +6°C° 0 mm 7 mps 756 mmHg 69%
    22:00 +6°C° 0 mm 7 mps 756 mmHg 72%
    23:00 +6°C° 0 mm 7 mps 756 mmHg 74%

    28 October, Monday

    Time Temperature Precipitation Wind Pressure Humidity
    00:00 +5°C° 0 mm 7 mps 756 mmHg 75%
    01:00 +5°C° 0 mm 7 mps 756 mmHg 77%
    02:00 +5°C° 0 mm 7 mps 756 mmHg 78%
    03:00 +4°C° 0 mm 7 mps 756 mmHg 79%
    04:00 +4°C° 0 mm 6 mps 756 mmHg 80%
    05:00 +4°C° 0 mm 6 mps 756 mmHg 81%
    06:00 +4°C° 0 mm 6 mps 756 mmHg 82%
    07:00 +3°C° 0 mm 6 mps 756 mmHg 83%
    08:00 +4°C° 0 mm 6 mps 756 mmHg 77%
    09:00 +5°C° 0 mm 7 mps 756 mmHg 71%
    10:00 +6°C° 0 mm 7 mps 756 mmHg 65%
    11:00 +6°C° 0 mm 7 mps 756 mmHg 62%
    12:00 +8°C° 0 mm 7 mps 756 mmHg 60%
    13:00 +8°C° 0 mm 7 mps 756 mmHg 57%
    14:00 +6°C° 0 mm 7 mps 756 mmHg 57%
    15:00 +7°C° 0 mm 6 mps 756 mmHg 56%
    16:00 +7°C° 0 mm 6 mps 756 mmHg 56%
    17:00 +6°C° 0 mm 5 mps 756 mmHg 56%
    18:00 +6°C° 0 mm 5 mps 756 mmHg 57%
    19:00 +6°C° 0 mm 4 mps 756 mmHg 58%
    20:00 +5°C° 0 mm 4 mps 756 mmHg 63%
    21:00 +5°C° 0 mm 5 mps 756 mmHg 69%
    22:00 +3°C° 0 mm 5 mps 756 mmHg 75%
    23:00 +4°C° 0 mm 4 mps 756 mmHg 77%
    Show more